This is the latest recevied weather packets stored in our database for station/object KG5MMT-12. If no packets are shown the sender has not sent any weather packets the latest 10 day(s).
| Time | Temp. | Humidity | Pressure | Rain* | Wind** | Luminosity | Snow |
|---|---|---|---|---|---|---|---|
| 1788071053 | 17.78° C | 74% | 0 hPa | 0 mm | - | - | - |
| 1788070754 | 17.78° C | 74% | 0 hPa | 0 mm | - | - | - |
| 1788070454 | 18.33° C | 74% | 0 hPa | 0 mm | - | - | - |
| 1788070163 | 18.33° C | 72% | 0 hPa | 0 mm | - | - | - |
| 1788069854 | 18.33° C | 69% | 0 hPa | 0 mm | - | - | - |
| 1788069554 | 18.33° C | 70% | 0 hPa | 0 mm | - | - | - |
| 1788069254 | 18.33° C | 69% | 0 hPa | 0 mm | - | - | - |
| 1788068954 | 18.33° C | 69% | 0 hPa | 0 mm | - | - | - |
| 1788068654 | 18.33° C | 71% | 0 hPa | 0 mm | - | - | - |
| 1788068354 | 18.33° C | 70% | 0 hPa | 0 mm | - | - | - |
| 1788068054 | 18.33° C | 68% | 0 hPa | 0 mm | - | - | - |
| 1788067754 | 18.89° C | 69% | 0 hPa | 0 mm | - | - | - |
| 1788067454 | 18.89° C | 68% | 0 hPa | 0 mm | - | - | - |
| 1788067154 | 18.89° C | 66% | 0 hPa | 0 mm | - | - | - |
| 1788066854 | 19.44° C | 65% | 0 hPa | 0 mm | - | - | - |
| 1788066554 | 19.44° C | 63% | 0 hPa | 0 mm | - | - | - |
| 1788066254 | 20° C | 61% | 0 hPa | 0 mm | - | - | - |
| 1788065954 | 20.56° C | 61% | 0 hPa | 0 mm | - | - | - |
| 1788065654 | 20.56° C | 55% | 0 hPa | 0 mm | - | - | - |
| 1788065354 | 20.56° C | 54% | 0 hPa | 0 mm | - | - | - |
| 1788065054 | 21.11° C | 54% | 0 hPa | 0 mm | - | - | - |
| 1788064754 | 21.11° C | 54% | 0 hPa | 0 mm | - | - | - |
| 1788064454 | 20.56° C | 54% | 0 hPa | 0 mm | - | - | - |
| 1788064154 | 20.56° C | 53% | 0 hPa | 0 mm | - | - | - |
| 1788063854 | 20° C | 56% | 0 hPa | 0 mm | - | - | - |
* Rain latest hour (hover to see other rain measurements)
** Current wind speed in m/s (hover to see current wind gust speed)